Weather History for Eagle, CO

Change the Weather History Date:

Thursday, January 9, 2014

  Actual Average Record
Temperature  
Mean Temperature 27 °F -  
Max Temperature 33 °F 31 °F 53 °F (1990)
Min Temperature 21 °F 3 °F -21 °F (1967)
Degree Days  
Heating Degree Days 38    
Moisture  
Dew Point 25 °F    
Average Humidity 94    
Maximum Humidity 100    
Minimum Humidity 75    
Precipitation  
Precipitation 0.00 in - - ()
Sea Level Pressure  
Sea Level Pressure 29.97 in    
Wind  
Wind Speed 3 mph (SW)    
Max Wind Speed 21 mph    
Max Gust Speed -    
Visibility 8 miles    
Events Snow    
Averages and records for this station are not official NWS values.
T = Trace of Precipitation, MM = Missing Value Source: NWS Daily Summary

Daily Weather History Graph

Daily Weather History Graph

Search for Another Location

Airport:

Trip Planner

Search our weather history database for the weather conditions in past years. The results will help you decide how hot, cold, wet, or windy it might be!

Date:

Astronomy

Jan. 09, 2014 Rise Set
Actual Time 7:28 AM MST 5:01 PM MST
Civil Twilight 6:58 AM MST 5:31 PM MST
Nautical Twilight 6:24 AM MST 6:05 PM MST
Astronomical Twilight 5:52 AM MST 6:37 PM MST
Moon 12:29 PM MST (1/9) 1:39 AM MST (1/9)
Length of Visible Light 10h 33m
Length of Day
9h 33m
Waxing Gibbous, 66% of the Moon is Illuminated
Jan 9
Waxing Gibbous
Jan 15
Full
Jan 23
Last Quarter
Jan 30
New
Feb 6
First Quarter

Hourly Weather History & Observations

Time (MST) Temp. Windchill Dew Point Humidity Pressure Visibility Wind Dir Wind Speed Gust Speed Precip Events Conditions
12:15 AM 28.4 °F - 26.6 °F 93% 30.07 in 10.0 mi Calm Calm - N/A   Overcast
12:35 AM 28.4 °F - 26.6 °F 93% 30.06 in 10.0 mi Calm Calm - N/A   Overcast
12:55 AM 28.4 °F - 26.6 °F 93% 30.05 in 10.0 mi Calm Calm - N/A   Overcast
1:15 AM 26.6 °F - 24.8 °F 93% 30.05 in 10.0 mi Calm Calm - N/A   Overcast
1:35 AM 26.6 °F - 26.6 °F 100% 30.05 in 10.0 mi Calm Calm - N/A   Overcast
1:55 AM 26.6 °F 22.6 °F 26.6 °F 100% 30.05 in 7.0 mi East 3.5 mph - N/A   Overcast
2:15 AM 26.6 °F - 26.6 °F 100% 30.06 in 10.0 mi Calm Calm - N/A   Overcast
2:35 AM 26.6 °F - 26.6 °F 100% 30.06 in 7.0 mi Calm Calm - N/A   Overcast
2:55 AM 26.6 °F - 26.6 °F 100% 30.05 in 10.0 mi Calm Calm - N/A   Overcast
3:15 AM 26.6 °F - 24.8 °F 93% 30.05 in 10.0 mi Calm Calm - N/A   Overcast
3:35 AM 26.6 °F - 24.8 °F 93% 30.05 in 10.0 mi Calm Calm - N/A   Overcast
3:55 AM 24.8 °F - 23.0 °F 93% 30.05 in 10.0 mi Calm Calm - N/A   Overcast
4:15 AM 26.6 °F - 24.8 °F 93% 30.04 in 10.0 mi Calm Calm - N/A   Mostly Cloudy
4:35 AM 26.6 °F 21.2 °F 24.8 °F 93% 30.04 in 10.0 mi East 4.6 mph - N/A   Overcast
4:55 AM 24.8 °F 16.9 °F 24.8 °F 100% 30.03 in 10.0 mi ENE 6.9 mph - N/A   Scattered Clouds
5:15 AM 23.0 °F 15.8 °F 21.2 °F 93% 30.02 in 10.0 mi East 5.8 mph - N/A   Clear
5:35 AM 23.0 °F 18.4 °F 21.2 °F 93% 30.02 in 10.0 mi ESE 3.5 mph - N/A   Clear
5:55 AM 21.2 °F 13.6 °F 21.2 °F 100% 30.02 in 10.0 mi ENE 5.8 mph - N/A   Scattered Clouds
6:15 AM 21.2 °F 12.6 °F 19.4 °F 93% 30.01 in 10.0 mi East 6.9 mph - N/A   Overcast
6:35 AM 21.2 °F 12.6 °F 21.2 °F 100% 30.02 in 10.0 mi East 6.9 mph - N/A   Mostly Cloudy
6:50 AM 21.2 °F - 19.4 °F 93% 30.02 in 10.0 mi Calm Calm - N/A   Scattered Clouds
7:50 AM 21.2 °F - 21.2 °F 100% 30.02 in 10.0 mi Calm Calm - N/A   Overcast
8:50 AM 23.0 °F - 23.0 °F 100% 30.03 in 7.0 mi Calm Calm - N/A Snow Light Snow
9:50 AM 26.6 °F - 26.6 °F 100% 30.02 in 10.0 mi Calm Calm - N/A   Mostly Cloudy
10:50 AM 32.0 °F - 28.4 °F 87% 30.00 in 10.0 mi Calm Calm - N/A   Mostly Cloudy
11:50 AM 30.2 °F - 24.8 °F 80% 29.95 in 10.0 mi Calm Calm - N/A   Mostly Cloudy
12:50 PM 33.8 °F 24.3 °F 26.6 °F 75% 29.91 in 8.0 mi WSW 13.8 mph - N/A   Overcast
1:50 PM 32.0 °F 24.2 °F 28.4 °F 87% 29.89 in 6.0 mi West 9.2 mph - N/A   Overcast
2:50 PM 32.0 °F 25.6 °F 28.4 °F 87% 29.87 in 7.0 mi West 6.9 mph - N/A   Mostly Cloudy
4:50 PM 32.0 °F 24.8 °F 26.6 °F 80% 29.84 in 8.0 mi WSW 8.1 mph - N/A   Overcast
5:50 PM 30.2 °F 24.3 °F 28.4 °F 93% 29.84 in 6.0 mi SW 5.8 mph - N/A Snow Light Snow
6:30 PM 30.2 °F 23.4 °F 28.4 °F 93% 29.84 in 1.0 mi West 6.9 mph - N/A Snow Light Snow
6:50 PM 30.2 °F 25.4 °F 28.4 °F 93% 29.84 in 1.0 mi West 4.6 mph - N/A Snow Light Snow
7:50 PM 30.2 °F 26.7 °F 28.4 °F 93% 29.83 in 1.0 mi West 3.5 mph - N/A Snow Light Snow
8:20 PM 28.4 °F 24.6 °F 28.4 °F 100% 29.83 in 4.0 mi WSW 3.5 mph - N/A Snow Light Snow
8:50 PM 28.4 °F 23.3 °F 28.4 °F 100% 29.82 in 5.0 mi NNE 4.6 mph - N/A Snow Light Snow
9:50 PM 28.4 °F 15.1 °F 28.4 °F 100% 29.82 in 5.0 mi SW 20.7 mph - N/A Snow Light Snow
10:50 PM 28.4 °F 24.6 °F 26.6 °F 93% 29.86 in 8.0 mi SSW 3.5 mph - N/A   Overcast
11:15 PM 26.6 °F 18.2 °F 24.8 °F 93% 29.88 in 10.0 mi West 8.1 mph - N/A   Overcast
11:35 PM 26.6 °F 20.0 °F 24.8 °F 93% 29.88 in 10.0 mi West 5.8 mph - N/A   Mostly Cloudy
11:55 PM 24.8 °F 14.0 °F 19.4 °F 80% 29.88 in 10.0 mi SW 11.5 mph - N/A   Partly Cloudy